Time,TemperatureF,DewpointF,PressureIn,WindDirection,WindDirectionDegrees,WindSpeedMPH,WindSpeedGustMPH,Humidity,HourlyPrecipIn,Conditions,Clouds,dailyrainin,SoftwareType,DateUTC
2013-07-28 00:02:00,68.0,65.0,29.89,SW,235,0.0,0.0,90,0.00,,,0.03,,2013-07-28 04:02:00,
2013-07-28 00:12:00,68.0,65.0,29.89,SW,235,0.0,0.0,90,0.00,,,0.03,,2013-07-28 04:12:00,
2013-07-28 00:22:00,68.0,65.0,29.89,SW,235,0.0,0.0,91,0.00,,,0.03,,2013-07-28 04:22:00,
2013-07-28 00:32:00,68.0,65.0,29.89,SW,235,0.0,0.0,91,0.00,,,0.03,,2013-07-28 04:32:00,
2013-07-28 00:43:00,68.0,65.0,29.89,SW,235,0.0,0.0,91,0.00,,,0.03,,2013-07-28 04:43:00,
2013-07-28 00:53:00,68.0,65.0,29.89,SW,235,0.0,0.0,91,0.00,,,0.03,,2013-07-28 04:53:00,
2013-07-28 01:02:00,67.0,64.0,29.88,SW,236,0.0,0.0,91,0.00,,,0.03,,2013-07-28 05:02:00,
2013-07-28 01:12:00,67.0,64.0,29.88,SW,236,0.0,0.0,91,0.00,,,0.03,,2013-07-28 05:12:00,
2013-07-28 01:22:00,67.0,64.0,29.88,SW,236,0.0,0.0,91,0.00,,,0.03,,2013-07-28 05:22:00,
2013-07-28 01:32:00,67.0,64.0,29.87,SW,236,0.0,0.0,91,0.00,,,0.03,,2013-07-28 05:32:00,
2013-07-28 01:43:00,67.0,64.0,29.87,SW,236,0.0,0.0,91,0.00,,,0.03,,2013-07-28 05:43:00,
2013-07-28 01:53:00,67.0,64.0,29.87,SW,236,0.0,0.0,91,0.00,,,0.03,,2013-07-28 05:53:00,
2013-07-28 02:02:00,67.0,64.0,29.87,SW,236,0.0,0.0,91,0.00,,,0.03,,2013-07-28 06:02:00,
2013-07-28 02:12:00,66.0,63.0,29.86,SW,236,0.0,0.0,90,0.00,,,0.03,,2013-07-28 06:12:00,
2013-07-28 02:22:00,66.0,63.0,29.87,SW,236,0.0,0.0,90,0.00,,,0.03,,2013-07-28 06:22:00,
2013-07-28 02:32:00,66.0,63.0,29.87,SW,236,0.0,0.0,90,0.00,,,0.03,,2013-07-28 06:32:00,
2013-07-28 02:43:00,66.0,63.0,29.87,SW,236,0.0,0.0,90,0.00,,,0.03,,2013-07-28 06:43:00,
2013-07-28 02:52:00,65.0,62.0,29.88,SW,236,0.0,0.0,90,0.00,,,0.03,,2013-07-28 06:52:00,
2013-07-28 03:02:00,65.0,62.0,29.88,SW,236,0.0,0.0,90,0.00,,,0.03,,2013-07-28 07:02:00,
2013-07-28 03:12:00,65.0,62.0,29.88,SW,236,0.0,0.0,90,0.00,,,0.03,,2013-07-28 07:12:00,
2013-07-28 03:23:00,65.0,62.0,29.88,SW,236,0.0,0.0,91,0.00,,,0.03,,2013-07-28 07:23:00,
2013-07-28 03:32:00,65.0,62.0,29.88,SW,236,0.0,0.0,91,0.00,,,0.03,,2013-07-28 07:32:00,
2013-07-28 03:43:00,65.0,62.0,29.87,SW,236,0.0,0.0,91,0.00,,,0.03,,2013-07-28 07:43:00,
2013-07-28 03:53:00,65.0,62.0,29.87,SW,236,0.0,0.0,90,0.00,,,0.03,,2013-07-28 07:53:00,
2013-07-28 04:02:00,65.0,62.0,29.88,SW,236,0.0,0.0,90,0.00,,,0.03,,2013-07-28 08:02:00,
2013-07-28 04:12:00,65.0,62.0,29.88,SW,236,0.0,0.0,90,0.00,,,0.03,,2013-07-28 08:12:00,
2013-07-28 04:22:00,65.0,62.0,29.88,SW,236,0.0,0.0,90,0.00,,,0.03,,2013-07-28 08:22:00,
2013-07-28 04:33:00,65.0,62.0,29.87,SW,236,0.0,0.0,91,0.00,,,0.03,,2013-07-28 08:33:00,
2013-07-28 04:41:00,64.0,62.0,29.87,WSW,238,0.0,0.0,92,0.00,,,0.03,,2013-07-28 08:41:00,
2013-07-28 04:42:00,65.0,62.0,29.87,SW,236,0.0,0.0,91,0.00,,,0.03,,2013-07-28 08:42:00,
2013-07-28 04:53:00,64.0,62.0,29.87,WSW,238,0.0,0.0,92,0.00,,,0.03,,2013-07-28 08:53:00,
2013-07-28 05:02:00,64.0,62.0,29.87,WSW,238,0.0,0.0,92,0.00,,,0.03,,2013-07-28 09:02:00,
2013-07-28 05:12:00,64.0,62.0,29.87,WSW,238,0.0,0.0,92,0.00,,,0.03,,2013-07-28 09:12:00,
2013-07-28 05:22:00,64.0,62.0,29.87,WSW,238,0.0,0.0,92,0.00,,,0.03,,2013-07-28 09:22:00,
2013-07-28 05:32:00,64.0,62.0,29.87,WSW,238,0.0,0.0,92,0.00,,,0.03,,2013-07-28 09:32:00,
2013-07-28 05:41:00,64.0,62.0,29.88,WSW,238,0.0,0.0,92,0.00,,,0.03,,2013-07-28 09:41:00,
2013-07-28 06:02:00,64.0,62.0,29.88,WSW,238,0.0,0.0,92,0.00,,,0.03,,2013-07-28 10:02:00,
2013-07-28 06:12:00,64.0,62.0,29.88,WSW,238,0.0,0.0,92,0.00,,,0.03,,2013-07-28 10:12:00,
2013-07-28 06:22:00,64.0,62.0,29.88,WSW,238,0.0,0.0,92,0.00,,,0.03,,2013-07-28 10:22:00,
2013-07-28 06:33:00,64.0,62.0,29.88,WSW,238,0.0,0.0,92,0.00,,,0.03,,2013-07-28 10:33:00,
2013-07-28 06:53:00,64.0,62.0,29.89,WSW,238,0.0,0.0,92,0.00,,,0.00,,2013-07-28 10:53:00,
2013-07-28 07:12:00,64.0,62.0,29.89,WSW,238,0.0,0.0,93,0.00,,,0.00,,2013-07-28 11:12:00,
2013-07-28 07:22:00,64.0,62.0,29.90,WSW,238,0.0,0.0,93,0.00,,,0.00,,2013-07-28 11:22:00,
2013-07-28 07:33:00,64.0,62.0,29.90,WSW,238,0.0,0.0,93,0.00,,,0.00,,2013-07-28 11:33:00,
2013-07-28 07:43:00,64.0,62.0,29.90,WSW,238,0.0,0.0,93,0.00,,,0.00,,2013-07-28 11:43:00,
2013-07-28 07:53:00,64.0,62.0,29.91,WSW,238,0.0,0.0,93,0.00,,,0.00,,2013-07-28 11:53:00,
2013-07-28 08:02:00,64.0,62.0,29.91,WSW,238,0.0,0.0,93,0.00,,,0.00,,2013-07-28 12:02:00,
2013-07-28 08:12:00,64.0,62.0,29.91,SW,234,0.0,0.0,93,0.00,,,0.00,,2013-07-28 12:12:00,
2013-07-28 08:22:00,64.0,62.0,29.92,East,86,0.0,0.0,93,0.00,,,0.00,,2013-07-28 12:22:00,
2013-07-28 08:33:00,64.0,62.0,29.93,East,86,0.0,0.0,93,0.00,,,0.00,,2013-07-28 12:33:00,
2013-07-28 08:43:00,65.0,63.0,29.92,East,94,0.0,0.0,93,0.00,,,0.00,,2013-07-28 12:43:00,
2013-07-28 08:53:00,65.0,63.0,29.92,East,94,0.0,0.0,94,0.00,,,0.00,,2013-07-28 12:53:00,
2013-07-28 09:02:00,65.0,63.0,29.92,East,94,0.0,0.0,94,0.00,,,0.00,,2013-07-28 13:02:00,
2013-07-28 09:12:00,65.0,63.0,29.92,East,94,0.0,0.0,94,0.00,,,0.00,,2013-07-28 13:12:00,
2013-07-28 09:22:00,65.0,63.0,29.92,East,94,0.0,0.0,94,0.00,,,0.00,,2013-07-28 13:22:00,
2013-07-28 09:32:00,65.0,63.0,29.92,East,94,0.0,0.0,94,0.00,,,0.00,,2013-07-28 13:32:00,
2013-07-28 09:43:00,65.0,63.0,29.92,East,94,0.0,0.0,94,0.00,,,0.00,,2013-07-28 13:43:00,
2013-07-28 09:52:00,65.0,63.0,29.92,East,94,0.0,0.0,94,0.00,,,0.00,,2013-07-28 13:52:00,
2013-07-28 10:02:00,67.0,65.0,29.93,SE,145,0.0,0.0,93,0.00,,,0.00,,2013-07-28 14:02:00,
2013-07-28 10:12:00,68.0,65.0,29.93,SSE,165,0.0,0.0,91,0.00,,,0.00,,2013-07-28 14:12:00,
2013-07-28 10:23:00,68.0,65.0,29.93,SSE,165,0.0,0.0,91,0.00,,,0.00,,2013-07-28 14:23:00,
2013-07-28 10:33:00,69.0,66.0,29.92,South,182,0.0,0.0,90,0.00,,,0.00,,2013-07-28 14:33:00,
2013-07-28 10:43:00,69.0,66.0,29.92,South,182,0.0,0.0,90,0.00,,,0.00,,2013-07-28 14:43:00,
2013-07-28 10:53:00,70.0,66.0,29.93,South,178,0.0,0.0,86,0.00,,,0.00,,2013-07-28 14:53:00,
2013-07-28 11:03:00,70.0,63.0,29.93,SSW,195,0.0,0.0,79,0.00,,,0.00,,2013-07-28 15:03:00,
2013-07-28 11:13:00,70.0,63.0,29.93,SSW,195,0.0,0.0,79,0.00,,,0.00,,2013-07-28 15:13:00,
2013-07-28 11:22:00,71.0,66.0,29.93,SE,136,0.0,0.0,84,0.00,,,0.00,,2013-07-28 15:22:00,
2013-07-28 11:32:00,71.0,66.0,29.93,SE,140,0.0,0.0,84,0.00,,,0.00,,2013-07-28 15:32:00,
2013-07-28 11:43:00,71.0,66.0,29.93,SSE,153,0.0,0.0,84,0.00,,,0.00,,2013-07-28 15:43:00,
2013-07-28 11:53:00,71.0,66.0,29.93,SSE,153,0.0,0.0,84,0.00,,,0.00,,2013-07-28 15:53:00,
2013-07-28 12:02:00,73.0,66.0,29.94,SW,219,0.0,0.0,79,0.00,,,0.00,,2013-07-28 16:02:00,
2013-07-28 12:12:00,73.0,65.0,29.94,South,189,0.0,0.0,75,0.00,,,0.00,,2013-07-28 16:12:00,
2013-07-28 12:22:00,73.0,66.0,29.94,South,191,0.0,0.0,78,0.00,,,0.00,,2013-07-28 16:22:00,
2013-07-28 12:33:00,73.0,66.0,29.94,SW,219,0.0,0.0,80,0.00,,,0.00,,2013-07-28 16:33:00,
2013-07-28 12:43:00,73.0,66.0,29.94,SW,219,0.0,0.0,80,0.00,,,0.00,,2013-07-28 16:43:00,
2013-07-28 12:52:00,74.0,63.0,29.94,SSW,200,0.0,0.0,69,0.00,,,0.00,,2013-07-28 16:52:00,
2013-07-28 13:02:00,75.0,64.0,29.94,ESE,110,0.0,0.0,68,0.00,,,0.00,,2013-07-28 17:02:00,
2013-07-28 13:13:00,75.0,64.0,29.94,ESE,110,0.0,0.0,68,0.00,,,0.00,,2013-07-28 17:13:00,
2013-07-28 13:23:00,73.0,64.0,29.94,NW,313,0.0,0.0,74,0.00,,,0.00,,2013-07-28 17:23:00,
2013-07-28 13:32:00,73.0,64.0,29.94,NW,313,0.0,0.0,74,0.00,,,0.00,,2013-07-28 17:32:00,
2013-07-28 13:43:00,76.0,67.0,29.93,SW,234,0.0,0.0,74,0.00,,,0.00,,2013-07-28 17:43:00,
2013-07-28 13:53:00,75.0,65.0,29.93,SW,217,0.0,0.0,71,0.00,,,0.00,,2013-07-28 17:53:00,
2013-07-28 14:03:00,75.0,65.0,29.93,SW,217,0.0,0.0,71,0.00,,,0.00,,2013-07-28 18:03:00,
2013-07-28 14:13:00,75.0,65.0,29.93,SW,217,0.0,0.0,71,0.00,,,0.00,,2013-07-28 18:13:00,
2013-07-28 14:22:00,75.0,65.0,29.93,SW,217,0.0,0.0,71,0.00,,,0.00,,2013-07-28 18:22:00,
2013-07-28 14:33:00,76.0,66.0,29.92,SSW,192,0.0,0.0,72,0.00,,,0.00,,2013-07-28 18:33:00,
2013-07-28 14:41:00,76.0,67.0,29.93,South,181,0.0,0.0,73,0.00,,,0.00,,2013-07-28 18:41:00,
2013-07-28 14:43:00,75.0,65.0,29.93,West,265,0.0,0.0,71,0.00,,,0.00,,2013-07-28 18:43:00,
2013-07-28 14:52:00,75.0,65.0,29.93,West,265,0.0,0.0,71,0.00,,,0.00,,2013-07-28 18:52:00,
2013-07-28 15:03:00,76.0,67.0,29.93,South,181,0.0,0.0,73,0.00,,,0.00,,2013-07-28 19:03:00,
2013-07-28 15:12:00,76.0,67.0,29.93,South,181,0.0,0.0,73,0.00,,,0.00,,2013-07-28 19:12:00,
2013-07-28 15:22:00,76.0,67.0,29.93,South,181,0.0,0.0,73,0.00,,,0.00,,2013-07-28 19:22:00,
2013-07-28 15:33:00,76.0,67.0,29.93,South,181,0.0,0.0,73,0.00,,,0.00,,2013-07-28 19:33:00,
2013-07-28 15:53:00,75.0,67.0,29.92,SE,124,0.0,0.0,77,0.00,,,0.00,,2013-07-28 19:53:00,
2013-07-28 16:03:00,75.0,66.0,29.92,SSW,200,0.0,0.0,74,0.00,,,0.00,,2013-07-28 20:03:00,
2013-07-28 16:13:00,76.0,68.0,29.91,East,89,0.0,0.0,76,0.00,,,0.00,,2013-07-28 20:13:00,
2013-07-28 16:23:00,76.0,65.0,29.91,East,86,0.0,0.0,69,0.00,,,0.00,,2013-07-28 20:23:00,
2013-07-28 16:33:00,76.0,67.0,29.91,SE,130,0.0,0.0,73,0.00,,,0.00,,2013-07-28 20:33:00,
2013-07-28 16:43:00,75.0,62.0,29.91,SW,232,0.0,0.0,65,0.00,,,0.00,,2013-07-28 20:43:00,
2013-07-28 16:52:00,75.0,65.0,29.91,ENE,67,0.0,0.0,70,0.00,,,0.00,,2013-07-28 20:52:00,
2013-07-28 17:03:00,75.0,65.0,29.91,ENE,67,0.0,0.0,70,0.00,,,0.00,,2013-07-28 21:03:00,
2013-07-28 17:13:00,74.0,66.0,29.91,ESE,118,0.0,0.0,76,0.00,,,0.00,,2013-07-28 21:13:00,
2013-07-28 17:22:00,74.0,64.0,29.91,NE,42,0.0,0.0,72,0.00,,,0.00,,2013-07-28 21:22:00,
2013-07-28 17:33:00,74.0,65.0,29.91,NW,305,0.0,0.0,74,0.00,,,0.00,,2013-07-28 21:33:00,
2013-07-28 17:44:00,74.0,64.0,29.91,WSW,257,0.0,0.0,72,0.00,,,0.00,,2013-07-28 21:44:00,
2013-07-28 17:52:00,73.0,63.0,29.92,ENE,71,0.0,0.0,72,0.00,,,0.00,,2013-07-28 21:52:00,
2013-07-28 18:02:00,73.0,64.0,29.92,WNW,283,0.0,0.0,74,0.00,,,0.00,,2013-07-28 22:02:00,
2013-07-28 18:12:00,73.0,64.0,29.92,WNW,283,0.0,0.0,74,0.00,,,0.00,,2013-07-28 22:12:00,
2013-07-28 18:22:00,73.0,63.0,29.92,NNE,13,0.0,0.0,70,0.00,,,0.00,,2013-07-28 22:22:00,
2013-07-28 18:32:00,72.0,62.0,29.92,East,97,0.0,0.0,70,0.00,,,0.00,,2013-07-28 22:32:00,
2013-07-28 18:43:00,72.0,62.0,29.92,WNW,290,0.0,0.0,71,0.00,,,0.00,,2013-07-28 22:43:00,
2013-07-28 18:52:00,72.0,62.0,29.92,NNE,19,0.0,0.0,70,0.00,,,0.00,,2013-07-28 22:52:00,
2013-07-28 19:03:00,72.0,61.0,29.92,SW,223,0.0,0.0,69,0.00,,,0.00,,2013-07-28 23:03:00,
2013-07-28 19:12:00,72.0,62.0,29.93,ENE,71,0.0,0.0,71,0.00,,,0.00,,2013-07-28 23:12:00,
2013-07-28 19:22:00,72.0,62.0,29.93,ENE,71,0.0,0.0,71,0.00,,,0.00,,2013-07-28 23:22:00,
2013-07-28 19:32:00,72.0,62.0,29.93,ENE,71,0.0,0.0,71,0.00,,,0.00,,2013-07-28 23:32:00,
2013-07-28 19:43:00,70.0,61.0,29.94,North,10,0.0,0.0,74,0.00,,,0.00,,2013-07-28 23:43:00,
2013-07-28 19:53:00,70.0,61.0,29.94,North,10,0.0,0.0,74,0.00,,,0.00,,2013-07-28 23:53:00,
2013-07-28 20:03:00,70.0,61.0,29.94,East,88,0.0,0.0,73,0.00,,,0.00,,2013-07-29 00:03:00,
2013-07-28 20:22:00,69.0,63.0,29.95,WSW,242,0.0,0.0,81,0.00,,,0.00,,2013-07-29 00:22:00,
2013-07-28 20:32:00,68.0,62.0,29.95,NNW,338,0.0,0.0,81,0.00,,,0.00,,2013-07-29 00:32:00,
2013-07-28 20:43:00,68.0,62.0,29.95,NNW,338,0.0,0.0,81,0.00,,,0.00,,2013-07-29 00:43:00,
2013-07-28 20:52:00,68.0,63.0,29.94,NNW,338,0.0,0.0,83,0.00,,,0.00,,2013-07-29 00:52:00,
2013-07-28 21:02:00,67.0,61.0,29.94,NNW,338,0.0,0.0,82,0.00,,,0.00,,2013-07-29 01:02:00,
2013-07-28 21:14:00,67.0,61.0,29.94,NNW,338,0.0,0.0,82,0.00,,,0.00,,2013-07-29 01:14:00,
2013-07-28 21:29:00,67.0,61.0,29.95,NNW,338,0.0,0.0,82,0.00,,,0.00,,2013-07-29 01:29:00,
2013-07-28 21:36:00,67.0,61.0,29.95,NNW,338,0.0,0.0,82,0.00,,,0.00,,2013-07-29 01:36:00,
2013-07-28 21:45:00,67.0,61.0,29.95,NNW,338,0.0,0.0,82,0.00,,,0.00,,2013-07-29 01:45:00,
2013-07-28 21:57:00,67.0,61.0,29.95,NNW,338,0.0,0.0,82,0.00,,,0.00,,2013-07-29 01:57:00,
2013-07-28 22:05:00,66.0,60.0,29.98,NNW,338,0.0,0.0,82,0.00,,,0.00,,2013-07-29 02:05:00,
2013-07-28 22:14:00,66.0,61.0,29.98,NNW,338,0.0,0.0,84,0.00,,,0.00,,2013-07-29 02:14:00,
2013-07-28 22:27:00,66.0,61.0,29.98,NNW,338,0.0,0.0,84,0.00,,,0.00,,2013-07-29 02:27:00,
2013-07-28 22:37:00,66.0,61.0,29.98,NNW,338,0.0,0.0,84,0.00,,,0.00,,2013-07-29 02:37:00,
2013-07-28 22:47:00,66.0,60.0,29.99,NNW,338,0.0,0.0,82,0.00,,,0.00,,2013-07-29 02:47:00,
2013-07-28 22:56:00,66.0,61.0,29.99,NNW,338,0.0,0.0,84,0.00,,,0.00,,2013-07-29 02:56:00,
2013-07-28 23:17:00,66.0,61.0,29.99,NNW,331,0.0,0.0,84,0.00,,,0.00,,2013-07-29 03:17:00,
2013-07-28 23:48:00,66.0,61.0,29.98,NNW,335,0.0,0.0,83,0.00,,,0.00,,2013-07-29 03:48:00,
2013-07-28 23:56:00,66.0,61.0,29.98,NNW,335,0.0,0.0,83,0.00,,,0.00,,2013-07-29 03:56:00,